When you browse on this site, cookies collect data to enhance your experience and personalize the content and advertising you see.
Visit our Privacy Policy to learn more. By continuing to use the site, you agree to this use of cookies and data.
  • Em Portugal
  • Lista de países
  • Para 7 dias
  • Temperatura da água
  • Mapas de satélite
  • Mapa do tempo
  • Widgets de tempo
  • user-avatar
    Iniciar Sessão

    Previsão horária em Balho

    Hoje, 24 Março, Domingo

    Tempo Temperatura Precipitação Vento Pressão Humidade
    00:00 +32°C° 0 mm 4 m/s 735 mmHg 53%
    01:00 +30°C° 0 mm 4 m/s 735 mmHg 55%
    02:00 +30°C° 0 mm 4 m/s 734 mmHg 58%
    03:00 +29°C° 0 mm 4 m/s 734 mmHg 61%
    04:00 +29°C° 0 mm 4 m/s 734 mmHg 63%
    05:00 +29°C° 0 mm 3 m/s 734 mmHg 65%
    06:00 +28°C° 0 mm 3 m/s 734 mmHg 67%
    07:00 +29°C° 0 mm 3 m/s 734 mmHg 60%
    08:00 +32°C° 0 mm 4 m/s 735 mmHg 53%
    09:00 +33°C° 0 mm 4 m/s 735 mmHg 46%
    10:00 +35°C° 0 mm 5 m/s 735 mmHg 40%
    11:00 +38°C° 0 mm 6 m/s 735 mmHg 35%
    12:00 +39°C° 0 mm 7 m/s 735 mmHg 29%
    13:00 +40°C° 0 mm 6 m/s 734 mmHg 29%
    14:00 +40°C° 0 mm 6 m/s 733 mmHg 28%
    15:00 +41°C° 0 mm 6 m/s 732 mmHg 28%
    16:00 +40°C° 0 mm 6 m/s 732 mmHg 30%
    17:00 +39°C° 0 mm 6 m/s 732 mmHg 32%
    18:00 +38°C° 0 mm 6 m/s 732 mmHg 35%
    19:00 +36°C° 0 mm 5 m/s 732 mmHg 40%
    20:00 +35°C° 0 mm 5 m/s 732 mmHg 45%
    21:00 +33°C° 0 mm 5 m/s 733 mmHg 50%
    22:00 +33°C° 0 mm 5 m/s 733 mmHg 53%
    23:00 +32°C° 0 mm 5 m/s 733 mmHg 56%

    Amanhã, 25 Março, Segunda-feira

    Tempo Temperatura Precipitação Vento Pressão Humidade
    00:00 +32°C° 0 mm 5 m/s 733 mmHg 59%
    01:00 +30°C° 0 mm 5 m/s 733 mmHg 61%
    02:00 +30°C° 0 mm 5 m/s 732 mmHg 63%
    03:00 +29°C° 0 mm 5 m/s 732 mmHg 65%
    04:00 +29°C° 0 mm 5 m/s 732 mmHg 67%
    05:00 +29°C° 0 mm 5 m/s 732 mmHg 69%
    06:00 +29°C° 0 mm 5 m/s 733 mmHg 70%
    07:00 +30°C° 0 mm 6 m/s 733 mmHg 64%
    08:00 +32°C° 0 mm 7 m/s 734 mmHg 57%
    09:00 +34°C° 0 mm 8 m/s 734 mmHg 51%
    10:00 +35°C° 0 mm 8 m/s 734 mmHg 45%
    11:00 +38°C° 0 mm 8 m/s 734 mmHg 40%
    12:00 +40°C° 0 mm 9 m/s 734 mmHg 34%
    13:00 +40°C° 0 mm 8 m/s 733 mmHg 33%
    14:00 +40°C° 0 mm 7 m/s 732 mmHg 32%
    15:00 +41°C° 0 mm 6 m/s 731 mmHg 31%
    16:00 +40°C° 0 mm 6 m/s 731 mmHg 33%
    17:00 +39°C° 0 mm 6 m/s 731 mmHg 36%
    18:00 +38°C° 0 mm 6 m/s 731 mmHg 39%
    19:00 +36°C° 0 mm 6 m/s 732 mmHg 44%
    20:00 +35°C° 0 mm 6 m/s 732 mmHg 49%
    21:00 +33°C° 0 mm 6 m/s 733 mmHg 54%
    22:00 +33°C° 0 mm 5 m/s 733 mmHg 56%
    23:00 +32°C° 0 mm 5 m/s 734 mmHg 58%

    Depois de amanhã, 26 Março, Terça-feira

    Tempo Temperatura Precipitação Vento Pressão Humidade
    00:00 +32°C° 0 mm 5 m/s 734 mmHg 61%
    01:00 +30°C° 0 mm 5 m/s 733 mmHg 62%
    02:00 +30°C° 0 mm 5 m/s 733 mmHg 64%
    03:00 +30°C° 0 mm 5 m/s 733 mmHg 65%
    04:00 +29°C° 0 mm 4 m/s 733 mmHg 66%
    05:00 +29°C° 0 mm 3 m/s 733 mmHg 67%
    06:00 +29°C° 0 mm 2 m/s 734 mmHg 68%
    07:00 +30°C° 0 mm 3 m/s 734 mmHg 61%
    08:00 +32°C° 0 mm 4 m/s 735 mmHg 54%
    09:00 +34°C° 0 mm 5 m/s 736 mmHg 47%
    10:00 +35°C° 0 mm 5 m/s 736 mmHg 43%
    11:00 +38°C° 0 mm 6 m/s 736 mmHg 38%
    12:00 +39°C° 0 mm 6 m/s 736 mmHg 33%
    13:00 +40°C° 0 mm 5 m/s 735 mmHg 33%
    14:00 +40°C° 0 mm 4 m/s 734 mmHg 32%
    15:00 +41°C° 0 mm 4 m/s 734 mmHg 32%
    16:00 +41°C° 0 mm 4 m/s 734 mmHg 32%
    17:00 +41°C° 0 mm 4 m/s 734 mmHg 33%
    18:00 +40°C° 0 mm 4 m/s 734 mmHg 34%
    19:00 +38°C° 0 mm 4 m/s 735 mmHg 40%
    20:00 +37°C° 0 mm 5 m/s 736 mmHg 46%
    21:00 +35°C° 0 mm 5 m/s 736 mmHg 52%
    22:00 +34°C° 0 mm 4 m/s 736 mmHg 54%
    23:00 +34°C° 0 mm 4 m/s 737 mmHg 56%

    27 Março, Quarta-feira

    Tempo Temperatura Precipitação Vento Pressão Humidade
    00:00 +33°C° 0 mm 3 m/s 737 mmHg 58%
    01:00 +33°C° 0 mm 3 m/s 736 mmHg 59%
    02:00 +31°C° 0 mm 2 m/s 736 mmHg 60%
    03:00 +31°C° 0 mm 2 m/s 736 mmHg 61%
    04:00 +30°C° 0 mm 2 m/s 736 mmHg 63%
    05:00 +30°C° 0 mm 2 m/s 737 mmHg 65%
    06:00 +30°C° 0 mm 2 m/s 737 mmHg 67%
    07:00 +30°C° 0 mm 2 m/s 738 mmHg 64%
    08:00 +31°C° 0 mm 1 m/s 739 mmHg 61%
    09:00 +32°C° 0 mm 1 m/s 740 mmHg 58%
    10:00 +33°C° 0 mm 1 m/s 739 mmHg 51%
    11:00 +36°C° 0 mm 2 m/s 739 mmHg 43%
    12:00 +37°C° 0 mm 2 m/s 738 mmHg 36%
    13:00 +38°C° 0 mm 2 m/s 738 mmHg 33%
    14:00 +39°C° 0 mm 2 m/s 737 mmHg 30%
    15:00 +40°C° 0 mm 2 m/s 736 mmHg 26%
    16:00 +40°C° 0 mm 3 m/s 736 mmHg 27%
    17:00 +41°C° 0 mm 4 m/s 736 mmHg 28%
    18:00 +40°C° 0 mm 5 m/s 737 mmHg 29%
    19:00 +39°C° 0 mm 5 m/s 737 mmHg 33%
    20:00 +37°C° 0 mm 5 m/s 738 mmHg 37%
    21:00 +35°C° 0 mm 5 m/s 738 mmHg 40%
    22:00 +35°C° 0 mm 4 m/s 738 mmHg 42%
    23:00 +34°C° 0 mm 3 m/s 738 mmHg 44%

    28 Março, Quinta-feira

    Tempo Temperatura Precipitação Vento Pressão Humidade
    00:00 +34°C° 0 mm 3 m/s 738 mmHg 46%
    01:00 +33°C° 0 mm 3 m/s 737 mmHg 49%
    02:00 +31°C° 0 mm 2 m/s 737 mmHg 53%
    03:00 +31°C° 0 mm 2 m/s 737 mmHg 56%
    04:00 +30°C° 0 mm 2 m/s 737 mmHg 59%
    05:00 +30°C° 0 mm 2 m/s 738 mmHg 62%
    06:00 +30°C° 0 mm 2 m/s 738 mmHg 65%
    07:00 +30°C° 0 mm 2 m/s 739 mmHg 62%
    08:00 +31°C° 0 mm 2 m/s 739 mmHg 59%
    09:00 +31°C° 0 mm 2 m/s 740 mmHg 57%
    10:00 +34°C° 0 mm 2 m/s 739 mmHg 51%
    11:00 +35°C° 0 mm 2 m/s 739 mmHg 45%
    12:00 +36°C° 0 mm 2 m/s 738 mmHg 39%
    13:00 +37°C° 0 mm 2 m/s 738 mmHg 37%
    14:00 +38°C° 0 mm 2 m/s 737 mmHg 34%
    15:00 +39°C° 0 mm 2 m/s 736 mmHg 32%
    16:00 +38°C° 0 mm 3 m/s 736 mmHg 33%
    17:00 +38°C° 0 mm 4 m/s 736 mmHg 35%
    18:00 +38°C° 0 mm 4 m/s 736 mmHg 36%
    19:00 +37°C° 0 mm 4 m/s 737 mmHg 41%
    20:00 +36°C° 0 mm 4 m/s 737 mmHg 46%
    21:00 +35°C° 0 mm 4 m/s 737 mmHg 51%
    22:00 +34°C° 0 mm 4 m/s 737 mmHg 53%
    23:00 +34°C° 0 mm 3 m/s 737 mmHg 54%

    29 Março, Sexta-feira

    Tempo Temperatura Precipitação Vento Pressão Humidade
    00:00 +32°C° 0 mm 2 m/s 736 mmHg 56%
    01:00 +32°C° 0 mm 2 m/s 736 mmHg 56%
    02:00 +31°C° 0 mm 2 m/s 736 mmHg 57%
    03:00 +31°C° 0 mm 2 m/s 735 mmHg 57%
    04:00 +31°C° 0 mm 2 m/s 736 mmHg 59%
    05:00 +30°C° 0 mm 2 m/s 736 mmHg 60%
    06:00 +30°C° 0 mm 2 m/s 737 mmHg 61%
    07:00 +31°C° 0 mm 2 m/s 737 mmHg 57%
    08:00 +31°C° 0 mm 2 m/s 738 mmHg 53%
    09:00 +32°C° 0 mm 2 m/s 738 mmHg 49%
    10:00 +35°C° 0 mm 3 m/s 738 mmHg 42%
    11:00 +36°C° 0 mm 3 m/s 737 mmHg 36%
    12:00 +38°C° 0 mm 3 m/s 737 mmHg 30%
    13:00 +40°C° 0 mm 4 m/s 736 mmHg 29%
    14:00 +41°C° 0 mm 4 m/s 735 mmHg 28%
    15:00 +41°C° 0 mm 4 m/s 734 mmHg 26%
    16:00 +41°C° 0 mm 4 m/s 734 mmHg 26%
    17:00 +41°C° 0 mm 4 m/s 734 mmHg 27%
    18:00 +41°C° 0 mm 5 m/s 734 mmHg 27%
    19:00 +39°C° 0 mm 5 m/s 734 mmHg 30%
    20:00 +37°C° 0 mm 5 m/s 735 mmHg 33%
    21:00 +36°C° 0 mm 6 m/s 735 mmHg 36%
    22:00 +35°C° 0 mm 5 m/s 735 mmHg 38%
    23:00 +34°C° 0 mm 5 m/s 735 mmHg 39%
    Mostrar mais